Dewpoint
56 57 58 59 59 60 61 62 62 62 62 62 62 62 61 61 62 57 54 57 59 63 62 54 50 47 46 46 45 44 42 38 38 38 38 39 40 42 44 43 44 46 49 54 58
54 56 57 58 59 60 60 61 61 62 62 62 62 62 61 61 56 53 58 63 63 63 55 52 49 48 43 45 43 39 39 40 38 37 37 38 39 40 41 41 43 48 52 55 57
51 54 56 57 58 59 60 60 61 61 61 61 61 61 61 59 53 48 63 63 64 62 56 54 52 48 43 44 41 39 35 40 38 37 36 37 38 38 38 39 40 44 48 50 54
51 52 54 56 56 57 59 59 59 60 61 61 61 61 61 57 39 55 63 64 63 59 55 53 50 47 43 40 40 39 35 38 41 39 38 38 37 36 36 38 38 40 40 44 46
51 51 54 54 56 56 58 59 59 59 60 60 60 60 57 50 47 59 61 62 59 56 54 52 49 45 42 39 39 40 39 37 39 40 39 40 38 38 38 38 38 39 40 39 40
51 52 51 54 55 56 57 59 59 59 59 60 60 59 54 41 49 51 56 55 56 54 52 51 48 45 41 39 38 40 40 37 39 39 40 40 39 39 39 40 39 39 39 39 41
49 51 51 52 54 56 57 58 58 59 59 59 60 54 48 43 48 53 52 52 56 56 51 51 50 48 44 41 41 42 40 39 38 40 39 41 39 39 39 39 38 38 39 39 39
47 49 50 52 52 55 56 57 58 57 58 58 58 52 43 45 49 51 51 51 54 57 57 56 54 52 48 45 43 39 38 35 35 38 39 40 34 34 37 37 38 38 38 38 40
48 48 50 51 51 53 56 56 56 57 58 57 53 50 41 49 44 46 52 48 53 56 57 55 55 50 47 43 40 39 33 33 32 33 37 40 37 36 34 35 36 37 36 36 38
48 48 49 51 51 51 55 55 55 55 55 54 53 46 46 41 44 45 52 52 51 53 53 52 52 46 44 41 32 33 33 32 29 32 38 36 37 37 36 37 37 38 37 37 37
48 48 49 50 52 50 53 52 48 47 50 46 45 42 43 44 45 45 52 52 49 48 45 48 44 40 41 41 39 34 32 30 30 32 37 36 36 36 35 34 37 37 36 35 36
48 48 48 50 49 50 52 46 46 46 42 48 47 43 45 44 41 44 51 47 47 41 44 41 39 38 38 38 38 37 35 33 32 33 37 35 35 36 35 33 32 32 33 34 36
48 49 48 49 50 48 46 48 52 52 40 43 47 45 43 45 41 41 48 46 42 40 38 36 36 38 34 33 32 34 34 34 33 32 37 37 35 36 36 36 35 35 36 36 37
48 49 49 48 47 46 43 46 52 53 38 37 43 46 46 45 41 43 47 43 41 38 36 36 36 37 38 36 34 32 35 34 33 33 30 31 26 26 28 28 32 34 35 36 36
48 49 48 48 45 43 43 44 52 50 23 38 42 47 47 42 41 42 47 44 37 36 38 34 34 34 34 34 37 35 36 34 34 34 34 33 29 27 28 27 27 28 31 33 36
48 49 49 47 46 43 44 50 49 33 23 37 42 42 42 41 41 43 45 46 41 37 35 35 39 36 34 35 35 36 37 37 36 35 30 30 29 24 22 24 25 28 33 34 35
48 49 47 46 41 46 45 46 32 26 36 34 36 39 37 39 39 41 40 40 35 34 33 33 34 37 37 34 36 36 36 30 25 25 22 24 28 25 25 27 28 27 33 34 36
48 48 46 43 46 47 45 35 24 31 33 38 35 36 33 37 38 40 38 36 37 35 32 31 28 32 39 34 32 33 34 25 19 22 21 24 22 22 28 27 29 34 34 35 35
48 45 44 43 46 47 38 26 27 33 36 36 36 32 34 37 37 38 37 35 36 36 32 30 31 35 36 37 33 34 33 31 28 25 25 24 25 28 32 31 32 32 33 34 34
45 42 41 43 46 43 32 27 30 31 37 37 32 35 32 34 34 36 36 35 35 36 36 31 29 33 36 38 38 36 35 31 31 24 16 20 19 19 29 31 31 31 32 33 34
43 36 41 43 44 36 26 28 31 29 33 36 34 35 34 34 33 35 32 34 35 35 36 31 30 31 36 35 33 34 33 34 32 31 23 18 17 20 21 28 31 31 32 33 33
38 31 41 43 32 32 25 27 34 29 30 34 39 33 34 34 35 33 34 32 34 35 34 34 30 29 32 35 35 34 32 32 29 27 29 25 21 25 25 26 30 30 32 33 33
33 36 42 40 25 26 27 26 32 32 31 33 36 37 35 35 31 31 33 34 34 34 33 34 32 26 27 31 33 33 33 32 32 32 27 25 23 26 27 27 32 32 32 32 32
35 29 33 36 34 27 27 29 24 33 30 29 30 31 36 34 34 34 31 34 34 34 39 36 31 27 21 20 31 30 30 32 33 30 28 27 27 26 27 29 32 33 33 32 31
35 31 33 27 29 29 27 26 26 28 32 33 34 32 34 33 32 31 31 32 34 36 37 36 32 31 28 27 26 26 28 29 29 30 28 26 28 29 29 29 33 34 34 32 30
31 31 31 31 30 28 27 23 23 28 33 33 30 31 33 32 32 29 31 30 31 34 33 35 30 31 27 29 28 27 26 26 28 28 28 29 28 29 29 30 31 32 34 32 30
37 37 34 31 30 28 26 25 24 26 34 35 35 35 32 33 35 34 35 35 33 32 32 33 32 30 25 28 29 27 27 27 26 25 27 26 27 29 30 29 29 28 32 33 31
Lifted_Index
3 3 2 2 1 1 1 0 0 1 1 2 2 2 3 3 3 2 2 2 2 2 2 2 2 2 2 3 3 2 1 0 1 2 2 3 3 3 3 3 3 3 2 2 1
4 3 3 2 2 1 1 0 0 0 1 2 2 2 3 3 3 3 3 2 2 2 2 1 2 2 2 3 3 3 2 1 1 2 3 3 3 3 3 3 3 3 2 2 1
5 4 3 2 2 1 1 0 0 0 1 1 2 2 3 3 3 3 2 2 2 2 2 1 1 2 2 3 3 3 2 2 2 2 3 3 3 3 4 4 4 3 3 3 2
6 5 4 3 2 2 1 1 0 0 1 1 2 2 3 3 3 3 2 1 2 2 2 1 1 2 2 3 3 3 3 3 3 3 3 3 4 4 4 4 4 4 4 4 4
6 6 5 4 3 2 1 1 0 0 1 1 1 2 3 4 4 3 2 1 1 2 1 1 1 2 2 3 3 3 3 3 4 4 4 4 4 4 4 4 5 5 5 5 5
7 6 6 5 4 3 2 1 1 0 1 1 1 2 4 5 5 4 3 2 1 1 1 1 1 2 2 3 3 3 3 3 4 4 4 5 5 4 4 4 5 5 5 5 5
7 7 6 5 4 3 2 2 1 1 1 1 2 3 4 5 5 4 4 3 2 1 1 1 1 1 2 2 3 3 3 3 4 4 4 5 5 5 5 5 5 5 5 5 5
8 7 7 6 5 4 3 2 2 1 1 1 2 3 5 5 5 4 4 3 2 1 0 1 1 1 1 2 3 3 4 4 4 4 4 5 5 5 5 5 5 5 5 5 5
8 7 7 7 6 5 3 3 2 2 1 2 2 4 5 6 5 4 3 3 2 1 0 0 0 1 2 2 3 4 4 4 5 4 4 5 5 5 5 5 5 5 5 5 5
7 7 7 7 6 5 4 3 3 2 2 2 3 4 5 6 6 5 3 2 2 1 0 0 1 2 2 3 3 4 4 4 5 4 4 5 5 5 5 6 5 5 5 5 5
6 7 7 6 6 6 5 4 3 3 3 3 4 4 5 5 5 5 3 2 2 2 1 1 2 3 3 3 3 4 4 5 5 5 5 5 5 6 6 6 6 6 6 6 6
5 6 6 6 6 6 5 4 4 3 3 3 4 4 4 5 5 4 3 3 3 3 3 3 3 4 4 4 4 4 4 5 5 5 5 6 6 6 6 6 6 6 6 6 6
5 5 6 6 6 6 5 4 3 3 3 3 3 4 4 4 4 4 4 3 3 4 4 4 4 4 4 4 4 4 4 5 5 5 5 5 5 6 6 7 7 7 6 6 6
4 4 5 6 6 6 6 5 3 2 2 3 3 3 4 4 4 4 4 3 4 4 4 5 5 4 4 4 4 4 4 4 5 5 5 5 5 5 6 7 7 7 7 6 6
2 3 4 5 6 6 6 5 3 1 1 2 3 3 4 4 4 4 3 3 4 4 4 5 5 5 4 4 4 4 4 4 4 4 5 5 5 5 6 7 7 7 7 7 7
0 1 3 4 6 6 5 4 2 1 0 1 2 3 4 4 4 3 3 3 4 4 4 5 5 5 5 4 4 4 3 3 3 3 4 5 5 5 6 7 7 8 7 7 7
0 0 2 3 4 5 4 3 1 1 1 1 2 3 3 3 3 3 3 3 4 4 4 4 5 5 5 5 4 4 3 3 2 2 3 5 5 5 6 7 7 7 7 7 7
0 1 1 2 3 3 3 2 1 1 1 1 2 2 2 2 2 2 3 3 4 4 4 4 4 5 5 4 4 4 3 3 2 2 3 5 5 6 7 7 7 7 7 7 7
1 1 2 2 2 2 2 1 1 1 0 1 1 1 1 1 2 2 3 3 4 4 4 3 3 4 4 3 3 3 3 3 2 2 3 4 5 6 7 7 7 7 7 7 7
1 2 2 2 2 2 1 1 1 1 0 -0 0 0 0 1 1 2 2 3 4 3 3 3 3 3 3 3 2 2 2 2 2 2 2 3 4 5 6 6 6 6 6 7 6
2 2 2 2 2 2 2 2 2 2 1 0 0 0 0 0 1 1 2 2 3 3 2 2 2 3 2 2 2 2 2 2 2 2 2 2 4 5 6 6 6 6 6 6 6
2 2 2 3 3 3 3 3 3 3 2 1 1 0 0 -0 -0 0 1 1 2 2 2 2 2 2 2 2 2 2 2 2 2 2 2 2 4 5 5 5 5 5 6 6 6
2 3 3 3 3 3 3 3 3 3 3 2 1 0 -0 -0 -0 -0 -0 0 0 1 1 1 1 1 2 2 2 2 1 1 1 1 1 2 4 5 5 5 5 5 5 5 5
3 3 3 3 3 3 3 3 3 3 3 3 2 1 0 -0 -0 -0 -0 -0 -0 -0 -1 -0 0 1 2 2 2 2 1 1 0 0 1 2 4 5 5 4 4 4 4 4 5
3 3 3 3 3 3 3 3 3 3 3 3 2 1 0 -0 -0 -0 -0 -0 -0 -1 -1 -1 -0 1 1 1 1 1 1 1 1 1 2 3 4 5 5 4 3 3 3 4 4
4 3 3 3 3 3 3 4 3 3 3 3 2 1 0 -0 -0 -0 -0 -0 -0 -1 -1 -1 -0 0 1 1 1 1 1 1 1 2 2 2 3 4 4 3 3 2 3 3 3
4 3 3 3 3 3 4 4 4 3 3 2 2 1 0 -0 -0 0 -0 -0 -0 -1 -1 -1 -1 -0 0 1 1 1 1 1 1 2 2 2 3 3 3 3 3 2 2 3 3